Theta_e
316 316 316 316 315 315 315 315 315 315 315 315 315 314 313 312 313 314 314 314 315 316 318 318 318 318 317 317 317 315 315 316 316 315 314 315 317 317 317 318 318 319 318 318 318 317 319 320 320 321 321 319 317 315 312 312 314 315 317 316 313 315 319 319 319 320 319 316 311 309 311 312 313 314 313 315 316 316 315 314 315 317 316 316 315 315 315
313 314 314 314 314 314 314 314 314 313 313 313 313 313 312 312 313 313 313 313 314 316 317 317 318 317 316 316 316 315 315 315 316 316 316 315 317 318 318 317 317 317 317 317 317 317 318 318 318 319 320 318 314 312 313 314 314 314 316 316 314 315 318 318 318 318 318 316 313 313 314 313 313 314 313 312 312 312 311 310 311 313 314 314 313 313 313
310 310 311 311 311 311 311 311 311 311 311 311 311 311 311 311 311 311 312 313 314 315 316 315 316 317 316 316 316 315 315 315 315 316 315 314 315 317 318 316 315 316 316 316 317 317 317 317 316 316 318 316 312 310 312 313 312 312 313 313 313 316 318 317 316 316 316 316 315 314 314 312 311 311 310 309 309 309 310 310 311 311 311 313 313 313 312
308 308 308 309 309 309 309 309 309 309 310 309 310 310 309 309 310 309 310 313 313 314 314 313 314 316 316 316 316 316 316 315 314 315 315 315 314 315 316 315 315 316 316 316 316 316 315 316 316 316 317 316 312 309 310 311 310 310 310 311 313 315 315 315 315 315 314 315 314 312 311 312 312 310 309 308 307 307 308 309 309 310 309 309 309 310 309
306 307 307 307 307 308 308 308 308 308 309 309 309 309 308 308 309 309 309 311 313 313 314 313 313 314 315 315 315 315 316 316 315 314 315 315 314 314 315 315 315 317 316 315 316 316 315 315 315 316 315 314 311 308 308 309 309 309 308 309 312 313 312 312 313 313 312 312 311 309 309 311 312 310 310 309 307 305 306 307 307 307 306 306 305 305 306
304 305 306 306 307 307 307 307 307 307 308 308 308 308 308 308 308 308 309 311 312 313 313 313 313 313 314 314 315 315 315 316 316 315 314 314 315 315 315 315 316 316 315 316 316 315 315 315 314 315 313 312 311 309 308 308 307 307 307 306 309 313 313 310 310 311 310 309 308 306 305 307 308 308 308 308 306 304 304 304 304 304 304 304 303 303 303
303 303 304 305 305 306 306 306 306 306 306 307 307 307 307 306 307 307 309 310 310 311 312 312 312 313 313 313 314 314 315 315 315 315 315 315 315 315 315 315 315 315 315 315 315 315 315 315 314 313 312 312 312 311 310 308 306 306 308 305 305 310 312 309 309 310 309 306 306 305 304 305 305 304 304 305 304 303 303 303 302 302 302 302 302 302 301
302 302 302 302 303 303 304 304 303 303 304 305 306 306 305 305 305 306 307 307 307 308 310 311 312 312 312 312 312 312 313 314 314 314 315 315 315 314 315 315 314 314 314 314 315 315 315 315 314 313 312 311 310 311 311 308 305 306 308 306 304 307 310 307 305 308 308 304 304 304 303 303 303 303 302 301 301 301 302 302 301 301 302 301 301 301 301
302 301 301 301 301 301 301 301 301 301 301 303 304 304 304 304 304 304 305 306 306 306 308 310 311 312 312 312 312 312 312 312 313 313 313 314 314 314 314 315 314 313 313 313 314 313 312 313 312 310 310 309 309 310 310 307 307 307 306 306 305 306 307 304 303 307 306 301 300 302 302 302 302 301 300 299 299 300 300 300 301 301 300 300 300 301 301
302 301 301 300 300 300 300 300 300 299 299 300 301 302 302 302 303 302 303 305 306 306 308 310 311 311 311 311 311 312 312 311 312 313 311 309 311 312 313 313 313 312 312 312 312 309 308 308 307 306 307 306 305 307 307 305 307 307 305 305 306 305 306 305 304 306 304 299 300 302 302 302 301 300 299 298 298 298 298 299 300 300 299 300 300 300 300
302 301 301 300 299 299 299 299 299 298 298 298 299 300 301 301 301 300 301 304 304 304 306 309 310 311 311 311 311 311 311 311 311 312 311 308 307 309 309 310 311 311 310 308 307 306 304 303 303 304 304 303 303 303 303 303 303 304 305 306 305 303 305 305 303 305 303 298 299 301 300 301 300 299 301 300 298 298 298 298 299 299 299 301 300 300 301
302 301 300 300 299 299 299 298 298 298 298 298 298 298 298 299 300 299 299 302 303 303 305 307 308 309 309 309 311 311 311 311 310 310 310 307 304 305 306 306 309 309 306 305 305 305 303 301 301 302 301 299 300 300 301 302 302 301 302 304 304 303 304 303 302 303 301 297 298 300 300 300 299 299 300 300 298 299 299 298 298 298 298 299 299 300 300
302 301 301 300 300 299 299 299 298 298 298 297 297 297 296 296 297 298 298 300 301 302 303 304 304 305 307 308 309 309 308 308 307 307 307 305 303 303 303 304 306 305 304 304 304 302 302 300 299 300 299 297 297 298 299 302 303 301 301 302 303 303 303 303 301 300 299 298 299 300 299 298 298 298 297 296 296 297 297 298 298 298 298 297 298 299 297
302 302 301 300 300 299 299 299 298 298 298 297 297 296 295 295 296 297 298 298 299 299 300 301 302 303 305 306 306 305 304 303 304 304 303 302 301 301 301 302 304 303 303 303 302 301 302 302 301 301 299 298 299 298 297 298 299 301 301 301 301 301 302 302 301 300 299 299 299 299 298 297 297 297 296 295 296 298 299 298 299 299 296 295 298 300 297
301 301 301 300 300 300 300 299 298 298 297 297 297 296 296 295 295 296 297 297 297 298 298 300 301 302 303 303 303 303 303 302 302 301 298 298 298 299 300 301 302 302 302 302 300 300 301 302 303 303 301 300 301 299 296 295 294 295 298 298 299 300 300 301 301 299 299 298 298 298 297 296 297 297 296 294 295 297 297 297 299 299 294 293 297 300 295
301 301 301 300 300 300 300 299 299 298 298 298 297 296 296 295 294 296 296 296 296 298 297 298 299 300 301 301 302 303 303 302 302 300 298 296 296 297 298 300 300 300 300 299 296 297 301 301 301 303 302 299 298 296 295 294 292 292 294 297 298 298 299 299 300 299 298 297 297 297 296 296 297 298 296 293 293 295 295 296 299 297 292 292 295 295 293
300 300 300 300 300 300 300 299 299 298 298 298 297 297 296 295 294 294 295 295 295 296 296 296 297 299 301 301 301 301 301 300 299 300 301 298 295 295 297 298 298 298 299 298 296 298 301 300 298 299 299 296 295 295 295 295 294 293 294 296 298 298 298 298 298 298 298 297 297 296 296 297 298 298 294 292 292 295 296 297 298 295 291 292 294 293 293
298 298 299 299 299 299 299 299 298 298 298 298 298 297 296 296 294 294 295 295 294 295 296 296 296 297 299 301 300 299 299 298 298 298 298 296 294 295 296 297 297 298 298 298 298 299 300 298 297 299 299 294 293 294 295 295 295 295 294 295 296 297 298 298 297 297 297 297 297 296 296 298 297 295 294 292 293 295 296 296 297 294 291 293 294 293 293
296 297 297 298 298 298 298 298 298 298 298 298 297 297 297 296 295 294 294 295 294 294 295 296 295 296 297 298 298 298 298 299 299 298 297 296 296 295 296 296 297 297 296 297 298 298 298 298 296 297 298 295 292 293 295 295 295 294 294 294 295 295 296 297 297 297 297 297 297 296 297 297 295 293 292 292 293 296 296 295 295 294 293 293 294 293 293
297 297 297 297 297 298 298 298 298 298 298 298 298 298 297 296 295 295 294 294 294 293 294 295 295 295 295 296 297 297 297 297 297 298 298 298 296 295 297 298 297 295 294 296 298 296 297 298 296 294 295 296 293 293 295 295 294 293 294 295 295 295 295 295 296 297 296 296 296 295 296 296 294 293 293 293 295 297 296 295 294 294 294 294 293 293 293
297 297 297 297 297 298 298 298 298 298 298 298 298 298 297 296 296 295 295 295 294 293 294 294 294 294 294 295 295 296 296 297 297 297 296 295 295 297 299 298 296 295 294 296 296 295 294 296 295 293 294 295 293 293 294 296 294 293 293 295 296 296 296 296 295 296 296 296 296 296 296 294 293 294 295 294 295 296 295 294 294 294 294 294 293 293 293
298 298 297 297 297 298 298 297 298 298 298 298 298 297 297 296 296 296 295 295 295 294 293 294 295 294 294 294 294 295 296 296 297 297 296 294 294 296 296 294 294 295 293 293 295 294 293 294 294 295 294 293 293 293 293 295 295 292 291 293 295 296 296 296 297 296 295 295 297 297 295 293 293 295 295 295 295 295 294 294 294 293 293 293 293 293 293
298 298 297 298 297 298 298 298 298 298 298 298 298 297 297 296 296 296 296 295 295 295 294 294 294 294 294 294 293 294 295 295 295 296 295 295 294 293 293 292 293 294 293 293 294 294 294 294 294 294 294 293 293 294 292 292 294 294 292 293 294 293 291 292 295 296 293 291 292 292 291 292 293 294 294 294 294 294 294 293 293 293 293 293 292 292 293
298 298 297 298 297 298 298 298 298 297 297 297 297 297 297 297 296 296 296 295 295 295 295 295 294 294 294 294 294 293 294 294 295 294 295 295 294 293 292 292 293 293 293 293 293 292 293 294 291 291 293 293 293 294 294 292 293 293 293 294 294 291 290 290 293 295 293 292 292 291 291 292 293 293 294 294 294 294 293 292 292 292 292 292 292 292 292
297 297 297 297 297 297 298 298 298 298 297 297 297 297 297 297 297 296 296 296 295 295 295 295 295 295 295 295 295 294 294 294 294 294 294 294 294 294 294 293 293 293 293 293 293 292 293 294 293 293 294 293 292 294 295 293 293 292 292 294 295 292 291 293 293 292 292 293 292 291 291 292 292 293 293 293 293 293 293 292 292 292 292 292 291 291 291
297 297 297 297 297 297 298 297 298 298 297 297 297 297 297 297 297 297 296 296 296 295 295 295 295 295 295 295 295 295 295 294 294 294 293 294 294 294 294 293 293 293 292 293 294 292 292 293 294 295 295 294 293 295 295 294 293 292 292 293 293 292 292 293 293 292 292 292 291 290 290 291 292 292 292 292 292 292 292 292 292 292 291 291 291 291 291
296 296 297 297 297 297 297 297 297 298 297 298 298 298 298 297 297 297 297 297 296 296 295 296 296 296 296 296 296 296 295 295 295 294 293 293 293 294 294 293 293 293 292 292 293 293 292 292 293 294 294 293 292 292 293 292 293 293 293 292 291 291 292 292 292 292 292 292 291 291 291 291 291 292 292 292 292 292 292 292 292 292 292 292 291 291 291
297 296 296 296 296 297 297 297 297 297 297 297 297 297 298 298 298 297 297 297 297 296 296 296 296 296 296 296 296 296 296 296 296 295 294 294 293 293 293 293 293 293 293 292 293 293 293 293 292 292 292 292 292 292 291 291 292 293 293 292 291 291 292 291 291 292 292 291 291 291 291 291 291 292 292 292 292 292 291 292 292 292 292 292 292 292 291
297 296 296 296 296 296 296 296 296 297 297 297 297 297 298 298 298 297 297 296 296 296 296 295 295 295 295 296 296 296 296 296 296 296 295 294 293 293 293 293 293 293 293 292 292 292 292 292 292 292 292 293 294 294 293 292 293 293 292 292 292 292 292 292 291 291 291 291 292 292 291 291 291 292 292 292 292 292 291 291 291 292 292 291 291 291 291
296 296 296 296 296 296 296 296 296 296 297 297 297 297 296 297 297 297 297 297 296 296 296 295 295 295 295 296 296 296 296 296 296 296 296 295 294 294 293 293 293 293 293 293 292 292 292 292 292 292 293 293 293 294 294 293 293 293 292 292 293 293 292 292 292 292 292 292 292 292 291 291 292 292 292 292 292 292 291 291 291 291 291 291 291 291 291
296 296 296 296 296 296 297 297 297 297 297 297 297 296 296 296 297 297 296 297 296 296 295 295 295 296 296 296 296 296 296 296 296 296 296 295 295 295 294 293 293 293 293 293 292 292 293 294 293 292 292 292 292 293 294 294 293 293 293 293 293 293 292 292 292 292 292 292 292 291 291 291 291 291 291 291 292 291 291 291 291 291 291 291 291 291 291
296 296 296 296 296 296 296 296 296 297 297 297 297 296 295 296 297 297 296 296 296 296 295 295 295 296 296 296 296 296 296 296 296 295 295 295 295 295 294 294 293 293 293 293 293 293 293 294 293 292 292 292 293 293 293 293 293 293 293 293 293 293 292 292 292 292 292 292 292 291 290 291 291 291 291 291 292 291 291 291 291 291 291 291 291 291 291
295 295 295 295 295 295 296 296 295 296 296 296 296 296 295 295 296 296 296 296 296 295 296 295 295 295 295 294 295 295 295 295 295 295 295 295 295 294 294 294 293 293 293 293 293 294 294 294 294 293 293 293 293 293 293 293 293 293 293 293 293 293 292 292 292 292 292 292 291 291 291 291 292 291 291 291 291 291 291 291 291 291 291 291 291 291 291
294 294 294 294 294 294 295 295 295 295 295 295 295 296 295 295 295 295 295 295 295 295 295 294 294 295 294 292 292 294 294 294 294 294 294 294 294 294 294 294 293 293 293 293 293 293 293 294 294 294 293 293 292 292 292 293 293 293 293 293 293 293 293 292 292 292 292 292 291 291 291 292 292 291 291 291 291 291 291 291 291 291 290 290 290 290 290
293 294 294 294 294 294 294 294 294 294 294 294 295 295 294 294 295 294 295 295 295 294 294 294 294 295 294 292 292 293 293 293 294 294 294 294 294 294 293 293 293 293 293 293 293 293 293 293 293 293 293 293 292 292 293 293 293 293 293 293 293 293 292 292 292 292 292 291 291 291 291 291 291 291 291 291 291 291 291 291 290 290 290 290 290 290 290
293 293 293 293 293 293 293 293 293 293 293 294 294 294 293 293 294 294 294 294 295 294 294 293 293 293 293 293 292 292 292 293 294 294 294 294 294 294 293 293 293 294 294 293 293 293 293 293 293 292 292 293 293 293 293 293 293 293 293 293 293 293 293 292 292 292 291 291 291 291 291 291 290 290 291 291 291 291 290 290 290 290 290 290 290 290 290
293 293 293 293 293 292 293 293 292 292 292 292 293 293 293 293 293 293 293 293 294 294 293 293 293 293 292 292 292 291 291 293 294 294 294 294 293 293 294 293 294 294 293 293 293 294 293 292 292 292 292 293 293 293 293 293 293 293 293 293 293 293 292 292 292 292 291 291 291 291 290 290 290 290 290 290 290 290 290 290 290 290 290 290 290 290 290
293 292 292 292 292 292 292 292 292 292 292 292 292 292 293 292 292 292 292 293 293 293 293 293 293 293 292 292 292 292 292 293 293 293 293 293 293 293 292 293 294 294 293 292 293 293 292 291 292 292 293 293 293 293 293 293 293 293 293 293 293 293 292 292 292 291 291 290 290 290 290 289 289 290 290 290 290 290 290 290 290 290 290 290 289 289 288
292 292 292 292 292 291 291 291 291 292 292 292 292 292 292 291 291 291 291 292 292 292 292 293 293 292 292 292 292 292 292 292 292 292 292 293 293 293 292 292 294 294 292 292 293 293 292 292 292 292 292 293 293 293 293 293 293 293 293 293 293 293 292 292 292 291 291 290 291 291 290 289 289 290 290 290 290 290 290 290 290 290 289 289 288 287 287
292 292 292 291 291 291 291 291 291 291 292 292 292 291 290 290 291 290 291 291 291 291 292 293 293 292 292 292 292 292 292 292 292 292 292 293 293 292 291 292 293 293 292 293 293 292 291 292 292 292 292 292 292 293 293 293 293 293 293 293 293 293 292 292 291 291 291 291 291 291 291 290 290 290 290 290 290 290 290 290 290 289 289 288 287 287 286
291 291 291 291 291 291 291 291 291 291 291 290 290 290 290 290 289 289 289 290 291 291 291 292 292 292 292 292 291 291 291 292 292 291 291 292 291 290 290 292 292 291 292 293 291 288 288 289 291 292 292 292 292 292 293 292 292 293 293 293 292 292 292 292 291 291 291 290 290 290 290 290 290 290 290 290 289 289 289 289 288 288 287 287 286 286 285
291 290 290 290 291 291 291 291 290 290 289 289 289 290 290 289 288 287 288 289 291 291 291 291 291 291 291 291 292 292 291 291 291 291 291 291 291 290 291 291 290 290 291 291 288 286 287 289 291 291 291 291 292 292 292 292 292 292 292 292 292 292 292 291 291 291 290 290 290 290 290 290 289 289 289 289 288 288 288 288 287 287 286 286 286 285 284
290 290 290 290 290 290 290 290 289 289 288 288 289 290 289 288 288 289 290 289 289 290 290 290 290 291 291 291 291 291 291 291 291 291 291 291 291 290 290 291 291 290 289 288 288 288 290 291 291 291 291 291 291 291 291 292 292 292 291 291 291 291 291 291 290 290 290 290 290 289 289 288 288 288 287 287 287 287 287 286 286 285 285 284 283 283 282
290 290 290 289 289 289 289 289 289 289 288 288 288 289 290 289 289 290 291 289 288 289 290 290 290 290 291 291 291 291 291 291 291 290 290 290 290 289 290 290 290 289 288 288 289 290 290 291 291 291 290 290 291 291 291 291 291 291 291 291 290 290 290 290 290 290 290 289 289 288 287 287 287 286 286 286 285 285 285 284 283 283 282 282 281 281 280
289 289 289 288 288 289 289 288 288 288 289 289 289 290 291 290 290 290 290 289 289 289 290 290 290 290 290 290 291 291 291 290 290 290 290 289 289 290 290 289 289 289 289 290 290 289 290 291 291 290 290 290 291 291 290 290 290 290 290 290 290 290 290 289 289 289 289 288 287 286 286 285 285 284 284 284 284 283 282 281 281 281 280 280 279 279 278
289 288 288 288 288 288 288 288 288 288 289 290 290 290 290 291 290 290 289 289 289 289 290 290 290 290 289 289 289 290 290 290 290 290 290 289 290 289 288 288 288 288 289 290 290 290 290 291 291 290 290 290 290 290 289 289 289 290 290 290 290 289 289 288 288 288 287 286 285 284 284 283 283 283 283 282 281 280 280 279 279 279 278 278 277 276 276
288 288 288 288 287 287 288 288 288 288 289 289 289 288 289 290 289 289 289 289 289 289 289 289 289 289 289 288 288 288 288 288 289 290 289 289 289 288 287 287 288 289 289 289 290 290 290 290 290 290 290 290 289 289 289 289 289 289 289 289 289 289 288 288 287 286 285 284 283 282 282 282 282 281 280 280 279 278 278 277 277 276 276 275 275 274 274
288 288 288 287 287 288 288 288 287 287 287 287 287 288 288 288 288 288 289 289 289 289 289 289 289 289 288 287 288 288 286 286 288 289 288 288 288 287 287 287 288 288 288 289 290 290 291 290 289 288 289 289 289 289 289 289 289 288 288 288 288 288 287 286 285 284 282 282 281 281 281 280 280 279 278 277 277 276 276 275 275 274 274 273 273 273 273
287 287 286 285 286 287 286 285 286 287 287 286 286 287 288 288 288 288 289 288 288 289 288 288 288 288 286 285 286 287 287 287 288 288 287 287 288 288 287 287 287 287 288 290 290 289 287 286 286 286 287 288 288 288 288 288 288 288 287 287 287 286 285 284 282 281 281 280 280 280 279 279 278 277 276 276 275 275 274 274 273 273 273 273 273 273 273
286 285 284 284 285 284 283 283 286 288 287 284 284 285 286 287 287 287 288 288 288 288 287 287 287 287 286 285 286 287 287 287 288 287 287 287 288 287 287 287 288 289 290 289 287 285 284 284 285 286 286 286 287 287 287 287 287 287 286 285 284 283 282 281 280 280 280 279 278 278 277 277 276 275 275 274 274 274 273 273 273 272 272 272 272 272 272
285 285 284 284 285 285 284 285 287 288 286 284 283 284 286 287 287 287 287 287 287 288 288 287 286 286 285 286 287 287 286 286 286 287 287 287 287 287 288 289 290 290 287 283 281 282 283 284 285 285 285 285 286 287 286 286 285 284 283 282 281 280 280 280 279 279 278 278 277 276 275 275 274 274 274 273 273 273 273 273 272 272 272 272 272 272 272
284 284 283 283 283 284 284 284 285 285 285 285 284 285 285 286 286 286 286 286 287 287 286 285 285 286 286 286 286 285 285 285 286 287 287 287 286 287 289 289 287 285 282 279 279 280 282 282 283 283 283 283 283 284 283 282 281 280 280 279 279 279 279 278 277 277 276 276 275 274 273 273 273 273 273 272 272 272 272 272 272 271 271 271 271 271 270
Wind_Speed
15 15 16 16 17 17 18 18 19 21 22 23 23 21 19 12 3 4 10 18 29 24 7 4 7 3 3 4 5 7 6 4 6 7 6 5 4 3 3 4 5 4 4 5 5 4 3 4 5 4 4 4 3 4 7 5 4 3 2 1 1 3 3 1 3 3 3 3 4 5 3 4 2 2 1 3 3 3 4 5 3 1 2 1 1 5 5
16 17 18 18 18 19 19 19 20 22 22 23 22 21 19 13 7 6 9 17 26 17 4 5 7 2 2 3 3 6 5 5 7 7 7 6 4 4 3 4 6 5 4 5 5 6 4 4 5 5 4 3 2 5 8 6 3 2 2 3 3 2 1 2 1 3 4 4 3 4 4 1 2 2 1 2 3 5 3 1 2 1 3 4 4 7 5
11 13 15 17 18 18 19 19 20 21 23 22 22 21 18 13 6 5 10 19 24 14 5 4 6 5 5 3 4 5 3 8 14 10 8 8 6 4 4 6 7 5 4 5 5 7 6 5 3 4 4 2 1 3 7 8 6 3 5 8 8 4 2 3 4 6 8 6 4 2 2 1 1 1 2 2 4 6 3 1 2 2 3 5 5 7 3
7 8 9 12 14 15 16 18 18 20 23 23 22 20 17 10 3 3 8 16 22 17 10 6 4 6 8 4 4 7 4 5 14 14 9 9 9 5 3 6 6 3 5 5 6 7 7 5 3 3 4 3 1 1 4 7 8 6 8 11 8 3 2 4 7 9 9 6 5 4 3 3 2 2 4 5 3 5 5 3 3 3 2 3 6 5 2
9 9 9 9 11 12 14 16 17 18 21 22 21 20 16 7 3 5 6 8 15 15 12 9 4 3 8 5 3 9 9 3 8 13 10 11 13 7 2 5 6 5 7 6 6 8 7 6 5 4 4 2 1 1 2 4 7 8 9 9 6 3 2 5 6 8 6 3 4 4 3 4 5 4 5 7 5 6 6 4 4 4 2 7 8 4 3
10 11 12 12 12 13 14 16 17 18 19 21 21 20 15 6 4 9 11 5 6 10 11 12 8 4 6 6 2 6 10 6 6 9 7 7 12 7 2 6 10 9 10 7 5 6 6 6 7 5 3 3 2 1 1 1 5 6 5 4 4 4 4 4 4 5 5 2 4 4 3 3 4 6 8 10 7 6 7 7 8 7 6 9 9 5 7
9 10 12 14 15 15 16 17 18 20 21 24 24 20 15 8 4 9 14 6 3 9 14 13 11 9 6 5 5 7 10 10 8 6 3 2 9 11 7 9 13 12 10 9 7 8 8 8 9 6 5 5 4 2 1 1 3 4 3 1 2 3 2 3 4 4 4 2 4 4 4 3 4 7 10 10 8 6 7 9 11 9 8 11 11 10 11
10 10 10 11 13 15 16 16 16 18 20 26 29 22 15 11 7 7 10 7 4 7 11 10 9 11 9 7 9 9 9 11 9 6 7 6 6 11 13 13 12 11 11 12 12 13 12 10 10 9 8 6 4 4 3 3 3 3 2 1 0 2 1 1 4 3 5 1 4 4 3 3 4 9 11 7 4 5 9 11 9 6 8 11 10 10 12
12 11 11 11 12 13 14 14 12 14 17 24 29 25 18 15 13 10 7 5 5 6 6 7 7 8 9 9 10 9 11 15 11 5 10 13 8 9 15 15 9 8 11 14 15 16 14 12 12 13 12 9 7 5 5 7 6 3 3 2 0 1 1 1 4 2 5 2 3 4 2 3 5 13 14 8 6 8 10 7 6 8 10 10 8 7 9
13 12 11 11 10 10 11 10 7 8 13 21 27 26 22 17 15 13 8 3 5 6 4 6 7 7 10 12 11 11 12 13 11 6 7 11 10 10 15 15 8 7 12 16 18 17 14 11 12 13 11 10 9 7 8 12 10 5 4 2 0 3 3 1 3 3 4 3 2 1 5 5 7 11 10 10 10 11 9 6 8 10 8 6 7 7 7
17 15 13 12 11 10 10 9 9 7 8 15 22 25 25 21 16 12 8 2 4 6 5 6 8 9 11 13 12 12 10 7 9 9 5 4 6 10 14 14 9 6 10 13 12 11 14 16 17 17 16 15 13 10 9 9 8 8 8 3 1 3 4 3 3 3 3 4 0 4 1 5 8 4 4 8 10 11 10 10 11 10 6 5 6 6 5
20 19 17 16 15 13 13 11 11 12 10 12 18 22 22 22 19 13 8 4 4 6 5 7 9 9 9 12 12 11 11 9 9 10 6 2 2 5 8 10 8 5 8 14 18 19 18 14 14 15 15 14 12 8 6 3 2 6 8 6 4 4 5 3 2 3 2 2 3 1 7 9 5 3 1 4 6 8 8 8 9 9 8 7 7 7 7
24 22 21 20 19 17 16 14 13 14 13 13 17 18 17 19 19 16 10 4 3 5 4 5 7 7 6 8 9 8 9 9 8 7 5 3 3 3 4 6 7 10 19 26 25 20 12 6 7 6 6 8 7 5 2 2 4 5 5 6 6 6 4 3 2 2 2 2 4 6 7 6 8 7 2 2 1 3 2 5 8 9 9 7 7 9 10
27 26 25 24 22 20 18 17 16 16 17 17 16 15 15 17 18 17 12 5 2 4 5 3 5 6 6 5 6 4 3 6 5 3 2 4 4 4 4 6 10 18 27 25 16 9 4 2 3 2 3 4 4 3 2 2 5 7 8 7 6 6 4 2 2 3 2 3 5 4 4 8 13 9 3 4 4 5 5 3 8 8 6 8 7 8 9
28 27 27 27 25 22 19 18 17 17 19 20 18 15 15 16 17 18 14 7 1 2 6 7 4 4 6 7 8 6 3 3 5 3 3 3 4 4 5 12 20 26 25 15 5 4 3 2 3 1 0 1 1 2 1 2 3 4 6 6 5 5 5 5 4 3 2 3 4 4 3 7 11 7 3 3 5 7 7 2 6 7 7 12 10 6 6
27 27 28 27 26 24 22 20 19 19 19 21 21 19 17 17 18 19 16 10 3 2 6 10 9 7 5 6 10 9 5 3 4 3 2 2 3 5 10 19 27 25 15 7 3 3 3 2 3 3 3 4 3 2 1 0 2 3 2 2 3 2 2 4 4 3 3 3 5 5 5 8 7 6 5 4 11 11 8 3 5 6 9 17 12 6 7
28 28 28 27 26 25 23 22 22 21 21 22 23 22 20 19 19 20 20 15 7 5 6 6 6 7 5 3 5 7 6 6 5 3 2 2 2 6 11 17 19 15 7 3 2 3 3 2 2 3 2 3 5 3 1 2 2 1 2 4 4 3 2 3 4 6 6 6 5 4 5 6 5 5 5 8 11 9 8 1 8 5 9 16 16 11 11
29 30 28 26 26 26 25 25 25 24 23 24 24 23 21 21 20 20 22 20 10 8 13 12 6 6 5 2 5 8 8 8 6 4 3 3 2 6 11 12 9 7 4 3 2 2 4 2 1 3 3 3 3 3 3 3 3 3 3 5 3 2 2 3 5 8 9 9 6 4 4 5 5 6 11 13 7 6 3 5 6 7 13 16 16 14 13
27 28 27 26 26 26 25 25 25 25 24 24 25 25 23 22 22 20 21 22 14 9 14 15 11 9 7 4 6 9 9 10 9 7 4 1 3 9 11 8 6 3 1 3 2 2 4 2 1 4 3 3 3 3 3 4 3 3 5 5 2 2 1 2 4 6 6 6 5 4 5 7 8 10 13 13 6 1 6 5 1 8 13 14 15 15 14
27 27 26 26 26 25 25 25 25 25 25 24 26 26 23 22 24 22 20 22 18 14 17 17 13 11 9 6 6 8 8 9 11 8 3 4 12 16 9 2 5 3 2 3 3 1 3 3 3 2 3 5 4 3 1 3 2 4 6 5 4 5 4 3 4 4 4 3 4 4 5 7 15 14 6 5 6 6 8 6 5 8 11 12 14 16 16
28 28 27 27 26 25 25 25 25 24 25 24 25 25 23 23 25 23 21 21 17 13 14 16 17 16 13 10 9 9 8 9 12 10 7 12 22 18 4 3 9 6 2 5 4 1 2 3 2 2 2 2 2 2 3 2 3 3 4 3 2 4 5 4 4 3 5 4 6 6 4 7 22 20 8 11 18 20 15 9 9 11 11 12 14 17 18
29 29 28 28 27 26 26 26 26 25 25 25 26 26 24 24 25 24 22 21 19 14 10 10 12 15 18 16 14 12 10 10 14 15 12 17 24 18 6 7 14 11 8 8 4 0 2 3 2 3 2 2 3 3 3 4 2 4 1 2 3 7 6 5 3 3 5 5 6 6 4 10 24 25 19 20 26 30 24 15 11 12 13 15 17 19 21
27 27 28 28 28 28 27 27 26 26 26 27 29 29 26 24 24 25 23 22 22 20 18 16 13 13 17 20 18 15 15 14 14 15 14 15 18 14 7 8 12 11 12 12 7 3 4 4 3 4 2 2 4 2 1 3 3 3 2 2 5 7 4 3 2 2 2 3 6 5 4 9 21 28 26 23 23 24 22 18 17 18 20 21 21 22 23
26 26 26 27 27 28 28 27 26 27 28 28 29 29 27 24 24 26 26 23 20 16 15 18 21 20 18 17 16 16 20 20 18 16 15 15 14 11 8 10 13 12 12 15 12 6 6 3 2 3 2 3 5 4 3 5 4 2 3 2 5 5 4 4 2 2 2 2 5 7 9 12 19 25 28 28 26 24 22 21 23 24 25 25 24 24 25
27 26 26 26 26 26 26 26 27 27 28 29 30 28 27 26 26 28 27 23 19 13 6 8 20 25 20 15 17 19 19 19 19 18 17 18 18 16 14 16 18 15 14 17 16 10 6 3 2 2 3 6 6 4 3 5 4 4 4 3 4 3 4 4 4 5 4 4 8 11 14 16 18 21 25 28 29 27 25 25 27 28 28 28 27 27 27
28 27 27 26 25 25 25 26 27 27 28 29 30 30 29 30 29 30 30 26 19 13 7 6 12 17 16 16 19 20 19 19 21 20 19 19 19 18 17 17 17 16 14 15 17 15 7 3 3 2 3 5 7 5 3 3 3 3 4 6 5 3 3 3 4 4 3 6 10 10 8 11 18 24 27 28 29 31 31 32 33 32 31 32 31 30 30
28 28 27 26 26 26 25 25 26 26 26 27 28 28 29 32 32 33 36 33 21 8 5 7 9 11 14 18 19 18 17 19 21 22 22 22 20 19 18 17 17 19 16 13 13 13 7 2 2 4 4 4 5 4 2 3 3 2 3 6 5 4 3 3 3 3 4 6 11 11 5 6 17 27 29 30 32 32 33 34 34 33 33 33 32 32 32
28 28 27 27 26 26 25 25 25 25 24 24 25 25 26 29 33 35 39 41 31 13 3 5 7 8 11 16 19 20 19 19 21 24 25 26 24 22 21 20 20 20 21 16 10 6 5 3 4 4 4 5 4 1 1 3 3 1 5 9 10 11 11 7 6 6 9 12 18 19 13 11 20 28 30 31 30 29 29 30 30 30 30 30 31 32 33
29 28 27 27 27 26 26 25 24 24 23 21 21 23 25 27 30 31 33 37 37 25 9 3 4 7 8 9 12 15 17 19 22 24 26 28 29 28 27 26 24 24 24 20 12 6 5 7 8 7 7 9 6 2 2 3 2 4 10 19 25 28 28 22 15 11 14 22 28 25 18 18 25 31 32 31 31 30 30 29 29 29 28 28 29 31 31
25 24 25 26 26 25 26 26 25 25 24 23 22 20 19 21 28 32 29 29 33 31 19 5 2 6 9 11 13 13 15 19 22 25 28 31 33 34 34 31 29 28 24 20 16 11 7 7 9 11 14 16 10 2 2 5 4 6 16 29 36 37 35 31 26 23 25 32 35 27 20 22 28 29 29 31 32 33 32 30 30 29 27 27 28 27 27
21 20 20 21 20 20 21 23 23 23 24 25 25 18 11 11 22 31 31 28 29 29 21 9 4 4 5 10 17 19 19 21 23 26 29 32 34 37 37 33 31 29 25 21 19 16 11 9 8 8 15 22 15 3 3 5 3 6 20 34 41 42 37 32 33 34 34 37 37 27 21 25 29 26 28 35 39 38 35 34 33 32 30 29 29 28 28
21 20 20 19 18 18 18 18 18 20 22 26 29 24 16 11 15 19 23 27 29 28 19 8 3 3 2 4 13 21 24 24 26 27 30 33 34 35 35 33 31 30 27 21 13 11 14 16 12 9 16 23 15 3 3 8 6 12 28 39 42 40 35 31 33 35 35 38 34 21 18 28 35 33 34 41 42 38 35 34 34 32 30 30 30 30 30
21 20 21 20 19 18 17 16 16 18 19 20 24 25 20 15 11 7 12 24 31 30 22 9 1 2 4 3 6 17 24 25 26 26 26 29 31 28 27 29 28 24 22 19 11 7 12 16 13 10 14 18 12 3 3 9 15 27 40 42 37 33 31 30 31 33 35 37 33 24 24 35 41 38 36 36 34 32 31 31 30 29 29 30 30 30 30
21 20 20 20 19 18 17 16 16 17 17 16 19 23 22 20 17 11 11 22 26 22 17 10 3 1 4 1 2 9 18 19 19 18 15 18 24 22 18 20 20 15 15 20 16 8 7 10 11 9 8 11 10 5 4 12 26 39 43 37 33 34 32 29 29 35 39 38 35 33 35 39 39 36 34 32 31 31 30 30 30 30 29 30 31 30 29
21 20 18 18 18 17 18 17 17 18 18 17 19 21 19 19 19 16 13 17 17 9 5 6 4 2 3 1 2 6 14 14 14 16 13 13 20 21 14 9 9 9 12 16 13 6 5 8 8 5 4 6 6 5 6 15 28 36 34 29 31 34 31 28 33 41 42 35 31 32 34 34 34 35 35 34 33 33 32 32 33 32 31 32 32 30 29
21 20 19 18 18 17 18 19 19 20 20 19 19 18 16 15 16 14 13 14 15 9 3 4 3 3 4 3 2 7 12 11 11 16 15 9 11 16 14 7 4 7 11 9 5 5 10 12 8 3 2 4 5 10 18 24 27 26 25 27 33 38 38 39 41 42 35 27 26 29 31 31 32 33 34 34 33 32 32 34 33 32 32 33 32 31 30
19 19 19 19 18 17 17 19 21 21 21 20 18 16 14 13 12 11 11 14 17 17 10 3 1 4 5 2 1 8 11 8 7 9 10 7 5 9 11 6 3 5 7 5 3 7 12 14 9 4 4 7 14 24 34 36 32 27 26 30 38 43 45 45 43 37 29 25 26 28 28 28 29 31 31 32 32 32 33 34 33 32 32 32 31 30 30
19 19 19 19 17 15 13 17 21 21 19 19 18 14 12 12 10 8 11 13 15 17 16 8 5 7 6 2 3 10 11 7 5 5 5 7 5 3 4 4 4 4 3 2 7 11 9 6 5 5 6 12 24 37 43 41 36 33 32 36 43 45 45 44 40 33 27 26 28 30 28 27 28 31 31 32 33 33 33 34 33 32 31 30 29 28 28
21 21 20 19 18 15 12 14 17 18 17 18 17 11 9 10 8 4 7 9 6 8 12 10 9 12 11 3 3 10 11 6 4 2 3 6 7 3 2 3 5 5 2 2 7 12 7 2 3 5 6 9 20 38 46 42 37 38 40 43 48 50 48 44 40 36 33 33 35 36 34 30 31 33 33 32 33 33 33 33 33 31 30 28 27 26 26
22 21 20 20 19 17 13 10 12 16 18 18 14 8 5 7 6 4 5 5 3 4 9 9 11 17 19 12 6 8 11 10 7 4 4 6 7 5 2 1 3 4 2 3 7 10 6 2 3 6 6 8 19 38 45 39 36 41 46 48 50 51 48 43 39 37 36 35 36 37 37 35 35 35 33 32 33 33 32 30 29 28 27 26 24 24 25
22 21 20 19 18 16 14 13 15 17 15 12 8 4 2 4 4 3 3 4 2 3 8 9 7 10 17 19 13 9 11 14 13 9 5 5 6 5 3 1 2 3 2 3 5 6 2 1 3 5 8 14 25 36 36 32 36 43 47 48 49 47 44 40 37 34 32 32 33 35 35 35 35 34 33 33 33 30 28 27 25 24 24 23 23 24 25
22 21 18 17 16 16 15 15 14 11 7 5 3 2 1 2 2 2 2 3 3 3 7 10 7 6 13 21 20 14 14 16 14 9 4 4 5 6 3 0 1 2 2 3 3 4 2 2 3 4 8 19 32 34 30 30 36 41 43 44 44 41 39 38 36 34 34 34 34 35 35 34 34 33 32 31 29 27 26 25 23 23 23 23 23 24 24
20 18 15 14 14 14 12 9 7 4 2 2 2 2 1 1 2 1 1 3 3 3 6 10 9 7 11 17 17 14 14 16 14 7 3 2 4 4 2 0 2 2 2 3 3 2 2 4 4 4 11 24 33 33 32 35 39 38 37 39 38 37 37 37 34 34 35 35 34 34 33 32 32 30 28 27 25 24 24 23 22 22 22 22 22 22 21
20 18 14 11 11 9 6 5 5 5 3 2 3 4 3 3 3 2 3 4 5 5 9 14 13 8 8 13 14 10 9 12 12 7 2 1 2 2 1 2 3 2 2 2 2 2 2 3 5 9 18 27 32 33 35 38 37 34 34 36 35 34 34 33 31 32 33 33 32 31 30 28 28 27 25 23 22 21 21 20 19 19 19 18 18 18 17
18 16 11 6 5 6 5 3 3 4 3 3 4 4 4 5 5 4 6 8 8 7 11 18 19 12 8 12 13 8 5 7 8 5 2 1 1 2 2 2 1 2 2 2 2 1 3 4 6 11 20 30 36 38 36 32 28 27 29 30 31 31 31 30 30 30 30 29 29 27 25 24 24 22 20 19 19 18 17 16 15 15 15 15 16 15 15
15 12 8 2 2 4 4 2 1 2 2 3 5 5 5 6 6 6 8 10 10 10 15 22 22 15 9 8 7 5 5 6 5 3 3 3 2 2 2 2 1 1 2 2 3 5 7 7 9 15 25 33 37 36 32 26 24 24 24 25 27 28 27 27 27 27 27 26 25 22 21 20 18 17 17 16 15 14 13 13 12 13 13 13 13 13 12
12 9 7 3 1 2 3 2 3 4 3 3 6 9 10 9 7 7 10 12 12 12 15 19 17 12 8 6 4 3 4 4 3 2 3 3 1 0 2 2 1 2 3 4 6 7 6 7 12 21 28 29 27 26 24 22 22 22 22 23 24 24 24 25 26 25 24 22 20 18 17 16 15 14 14 13 12 12 11 11 11 11 10 10 10 10 10
11 8 6 3 1 2 3 3 4 4 3 3 5 7 10 9 7 6 9 12 12 13 14 13 9 4 3 4 3 2 1 1 1 2 2 2 1 1 1 1 2 2 3 5 7 7 7 10 15 18 18 16 16 17 17 17 18 19 20 22 22 22 23 24 24 22 20 18 17 15 15 14 13 12 12 11 11 10 9 9 9 8 8 8 8 8 8
11 7 4 2 1 1 3 5 5 4 4 5 7 7 8 8 7 7 8 8 9 12 13 10 6 3 1 1 2 0 1 1 2 1 1 1 2 2 2 2 3 3 3 5 6 5 5 8 10 10 9 9 10 11 11 13 15 17 19 21 21 21 21 20 19 17 16 14 13 12 12 12 12 11 11 10 9 8 8 7 7 7 6 6 7 7 9
8 3 2 2 2 0 2 4 4 4 3 4 5 6 7 6 6 7 7 6 7 10 9 5 3 2 1 1 2 1 2 2 2 1 1 2 3 2 1 2 4 4 4 4 4 4 5 5 4 4 6 7 8 9 10 13 15 17 19 19 19 17 16 15 14 13 13 12 12 11 11 11 11 10 10 9 8 7 7 6 5 5 5 6 6 7 9
4 3 2 3 5 5 4 5 5 5 4 6 9 11 12 12 11 9 9 9 9 9 6 2 2 2 2 1 2 2 1 1 1 1 1 2 2 2 2 4 5 4 3 3 3 4 6 6 6 7 8 9 9 11 13 14 15 16 16 15 14 13 13 12 12 12 12 12 12 11 11 11 10 10 9 8 7 6 5 4 4 4 5 6 7 8 9
2 2 1 1 4 6 6 5 4 5 7 11 13 14 14 13 13 12 12 13 12 8 4 3 3 3 1 2 2 1 1 1 1 2 2 1 2 3 4 5 4 4 4 4 4 5 7 8 8 9 10 10 11 11 12 13 13 12 12 11 11 11 11 11 11 11 11 11 12 11 10 10 9 8 7 5 4 4 3 3 3 4 5 6 7 8 8
Wind_Direction
198 196 195 194 191 193 194 189 181 175 176 179 176 173 173 166 128 149 171 186 190 189 195 192 185 211 205 161 156 166 159 156 173 178 179 178 165 166 183 182 187 199 184 174 177 174 185 203 199 215 231 221 207 176 166 149 123 109 115 221 78 78 97 180 273 300 309 320 356 11 27 90 105 279 155 140 166 153 171 210 184 167 250 216 231 253 252
176 176 178 180 180 180 178 178 179 175 172 175 172 165 162 155 136 144 163 181 189 195 218 194 194 208 151 143 167 172 168 172 176 177 184 182 159 160 184 185 195 207 172 166 185 180 189 226 210 204 210 204 192 188 187 182 155 143 190 179 156 159 133 124 196 292 308 313 335 352 346 49 165 248 222 144 125 109 103 165 126 162 225 188 218 250 240
180 180 180 182 182 180 177 176 178 174 168 169 171 163 152 144 139 155 174 186 195 208 237 204 204 201 186 184 178 172 185 197 194 190 187 187 168 152 194 190 181 181 160 167 194 192 197 225 219 191 198 224 245 194 206 208 196 201 199 164 147 165 191 144 176 230 243 243 231 230 263 225 177 217 213 190 138 132 135 137 155 206 202 170 215 246 250
195 196 194 190 186 183 180 176 176 176 170 168 173 170 158 150 157 174 184 197 209 225 232 213 213 207 201 209 191 193 209 203 197 196 197 201 191 174 190 179 164 168 167 173 207 215 212 211 194 171 190 228 282 162 192 197 185 179 174 160 140 117 219 200 201 224 232 220 212 207 151 154 212 234 206 206 183 148 131 118 163 197 198 217 232 227 247
204 208 212 207 197 192 188 182 182 182 175 173 176 173 163 157 178 177 171 197 217 228 224 209 208 193 192 198 200 202 205 198 192 197 201 204 197 196 201 175 176 187 177 180 212 216 212 208 197 181 178 197 299 124 132 152 161 154 153 159 135 98 226 225 212 229 241 165 166 191 151 166 205 225 236 232 198 144 141 180 198 150 153 249 246 193 190
211 208 212 217 216 211 203 196 195 193 189 189 184 174 168 172 193 188 183 181 208 217 213 206 203 190 189 202 232 207 205 205 195 195 199 196 193 198 228 203 205 196 178 183 205 201 208 216 204 190 168 155 126 79 39 120 156 143 135 155 123 118 224 231 187 230 256 129 146 175 155 177 209 217 239 247 230 173 163 210 218 180 195 248 252 216 209
223 211 208 211 212 215 214 208 204 199 196 197 193 184 182 191 191 192 198 205 212 206 205 201 204 212 207 211 232 221 211 211 204 179 141 170 198 199 207 216 213 205 187 185 198 200 201 212 209 191 173 172 158 152 274 234 164 138 114 149 125 120 231 216 161 222 264 176 172 189 174 194 233 232 234 240 240 210 197 226 232 212 220 246 254 254 252
234 223 221 219 214 214 214 211 208 202 195 195 195 191 190 196 195 185 197 218 236 209 201 190 201 216 212 215 226 223 217 218 214 182 173 195 201 194 208 221 209 201 199 198 210 213 202 205 205 178 169 187 181 176 195 160 143 138 129 194 231 129 211 191 142 223 284 250 177 199 179 178 236 256 250 233 207 220 231 239 241 232 239 244 247 258 265
236 229 233 232 226 223 215 207 203 198 195 196 197 199 201 201 198 184 178 207 212 195 191 186 194 213 211 215 220 215 219 221 217 206 206 213 207 187 206 218 205 195 206 210 220 219 202 201 203 185 178 185 181 185 182 153 144 157 161 175 269 146 195 15 87 187 275 301 186 214 32 37 282 269 261 239 211 231 240 233 217 222 236 244 247 248 254
231 232 236 233 233 236 225 219 219 202 199 200 201 205 207 203 202 194 179 194 202 184 180 187 195 210 212 214 216 216 222 216 204 213 226 219 216 208 206 208 199 200 209 215 225 219 192 170 169 166 157 146 139 144 160 159 158 163 158 154 128 143 155 129 120 174 269 300 215 174 40 16 282 264 247 230 233 242 247 249 235 224 217 220 233 236 238
222 222 225 222 225 227 221 234 260 262 231 213 207 209 211 209 207 195 177 204 217 184 182 197 204 216 214 209 215 223 223 200 188 206 224 197 202 217 212 202 197 209 210 210 209 179 136 117 115 116 108 99 99 108 130 146 154 158 153 137 136 146 141 161 162 158 251 272 51 68 29 253 257 259 176 198 223 230 232 241 241 228 206 206 233 247 246
221 216 212 210 210 210 207 220 250 268 267 234 214 212 215 215 211 194 178 213 218 174 184 215 217 225 221 208 210 221 219 209 208 215 215 139 151 215 212 195 195 204 183 175 164 142 122 103 90 84 77 76 76 78 92 104 158 174 162 144 149 159 147 161 154 123 198 226 89 120 240 242 269 331 119 190 212 213 221 244 251 240 227 226 246 253 243
223 219 212 207 203 203 207 213 232 252 255 235 215 212 216 216 210 197 185 206 228 186 193 244 243 241 233 204 200 214 215 207 211 214 198 152 145 174 181 186 201 182 158 154 150 136 115 73 68 66 42 46 46 33 44 194 226 223 199 166 159 162 157 160 156 142 156 147 160 214 248 283 297 286 243 157 200 182 206 275 267 246 226 209 222 244 244
224 223 221 217 211 208 212 217 223 232 234 228 220 217 218 215 207 197 190 198 249 204 193 249 265 235 222 191 158 160 179 162 154 153 148 148 153 156 168 182 183 167 155 147 134 113 93 48 68 56 360 21 21 335 321 238 226 222 221 212 179 161 155 155 189 199 168 172 213 247 319 310 285 270 200 174 207 172 152 240 261 249 216 177 185 232 244
225 225 225 223 219 215 218 222 223 225 225 223 219 215 219 221 211 202 199 201 242 225 214 227 224 183 192 194 165 139 121 140 134 97 76 101 122 132 153 157 157 158 156 148 116 69 93 116 111 113 295 109 208 260 324 342 281 238 224 219 190 170 177 179 203 222 129 139 242 275 293 264 260 261 245 207 185 159 137 154 276 270 203 174 176 209 214
226 225 224 222 219 218 220 223 221 219 219 219 214 209 212 220 215 209 209 208 200 229 225 224 223 203 178 179 177 168 159 164 153 109 60 51 82 121 141 149 155 159 154 129 93 85 95 123 145 160 194 188 173 217 277 52 326 332 2 137 155 178 182 158 179 212 149 163 224 230 235 249 250 254 258 162 149 143 107 70 289 268 192 181 182 195 196
228 228 228 227 225 224 223 222 219 216 216 216 213 208 207 213 214 212 214 213 213 233 226 211 211 205 180 152 181 178 162 152 140 117 149 162 115 127 141 148 157 163 155 109 76 85 101 113 114 125 222 205 152 167 242 140 152 301 33 102 149 174 167 156 187 216 211 211 227 231 243 253 244 234 207 156 141 120 84 5 270 250 172 175 180 187 204
227 228 229 229 229 229 226 222 218 216 216 216 215 213 211 211 211 211 213 215 220 241 239 236 239 218 195 176 185 174 156 147 130 94 107 129 134 156 153 149 156 173 168 139 86 98 131 150 148 158 221 249 143 162 200 150 163 203 139 113 133 180 195 196 208 225 224 218 229 256 262 243 221 181 172 160 116 72 124 227 236 177 163 173 182 196 216
220 221 222 222 223 224 223 220 217 215 216 215 214 214 211 209 209 208 210 214 217 230 232 232 240 245 242 226 186 171 164 165 157 133 109 100 178 157 146 143 160 178 132 110 98 120 154 203 229 140 172 242 191 159 185 176 172 166 140 132 151 157 169 221 218 223 224 225 231 252 274 245 198 166 168 163 124 83 218 228 196 171 185 195 203 214 224
217 216 216 216 216 217 217 216 215 214 213 212 212 213 212 209 209 210 212 215 221 236 238 231 230 234 236 228 198 179 172 171 164 150 142 184 162 145 130 174 183 137 76 151 170 162 155 196 230 143 160 218 196 131 169 230 225 173 160 172 187 165 159 216 230 196 174 218 221 219 270 225 165 148 152 180 183 224 236 242 249 229 225 225 223 229 235
219 217 216 215 216 217 216 216 216 214 211 210 211 214 215 211 209 213 219 221 223 239 246 240 235 231 230 235 229 213 202 196 193 189 176 162 159 154 146 208 174 153 138 164 170 232 174 170 198 174 173 216 201 155 159 197 287 243 163 139 184 181 168 195 228 189 155 191 212 210 254 182 160 159 187 209 211 231 243 236 227 226 229 234 238 247 249
221 219 218 218 218 218 217 217 216 214 210 208 211 214 215 212 209 210 218 224 228 237 244 243 239 232 230 234 233 225 219 216 216 216 194 164 167 179 193 164 163 173 178 156 134 165 188 162 156 165 176 194 203 207 167 154 246 268 165 118 211 218 194 173 201 202 171 188 216 217 224 182 176 188 211 216 221 234 238 231 232 237 242 247 249 253 253
222 222 220 220 220 219 219 217 215 214 211 209 212 214 213 210 208 207 212 220 229 238 246 250 252 246 235 231 229 226 222 217 218 221 208 182 181 196 208 175 171 179 183 180 174 148 152 171 163 150 178 191 162 154 214 204 217 227 207 236 247 232 201 124 97 245 224 230 230 217 214 197 193 203 218 226 230 234 232 237 251 258 260 260 257 257 258
222 222 222 221 220 219 218 216 215 215 211 209 213 217 215 211 206 204 207 214 223 235 249 252 248 245 239 230 225 226 225 221 221 222 215 203 197 203 214 199 185 182 192 199 196 160 138 164 151 126 197 202 152 140 200 225 229 191 175 259 290 258 195 154 178 227 217 240 225 203 200 205 202 207 219 225 228 230 237 252 263 267 269 267 264 265 264
222 221 221 222 220 219 219 217 216 215 211 210 215 218 216 213 209 205 204 207 212 216 230 256 250 249 249 241 232 230 226 224 225 225 223 219 212 213 222 213 199 199 208 205 197 179 147 138 134 145 203 197 172 168 206 213 208 188 178 216 263 234 163 162 212 218 206 241 247 226 215 217 217 219 223 225 228 235 247 263 270 272 273 271 269 267 264
222 220 220 220 219 218 218 218 218 218 214 213 216 217 217 216 214 211 209 207 207 209 210 242 257 257 253 245 240 236 228 224 226 227 226 224 220 220 225 219 208 209 212 205 201 196 178 131 131 168 214 199 176 174 205 198 165 170 213 223 212 179 165 177 197 212 231 260 259 248 240 243 242 239 238 239 243 249 258 267 271 272 271 271 270 269 267
222 220 220 220 219 218 217 217 218 220 219 218 218 220 223 223 221 219 216 210 203 201 216 225 240 250 247 246 248 245 233 226 226 227 226 224 220 219 218 215 212 208 200 196 200 196 183 164 182 188 199 188 166 161 185 178 135 123 236 232 194 179 213 181 154 198 235 241 237 230 223 252 252 250 253 256 258 260 264 267 270 270 270 270 270 270 269
222 221 222 222 220 219 217 217 218 219 219 219 219 221 225 226 227 228 224 216 209 204 191 193 205 224 240 249 252 246 239 233 225 222 223 223 221 220 218 214 213 207 197 192 189 179 179 189 186 183 172 159 165 183 129 132 129 157 240 234 217 217 225 204 175 212 238 244 241 232 218 231 252 259 264 268 269 270 268 268 271 271 270 272 272 269 268
218 217 219 220 220 220 221 220 220 220 218 216 215 217 222 227 229 231 230 224 219 219 216 178 187 206 219 238 244 236 232 231 226 221 222 222 221 223 223 219 217 211 202 195 187 180 198 197 192 203 192 164 163 195 155 152 185 224 235 238 237 239 240 231 218 225 242 250 253 246 231 237 254 262 267 272 274 274 271 271 273 273 273 274 273 269 267
209 208 213 217 216 217 219 219 219 219 218 216 213 213 218 227 230 229 229 229 226 223 221 215 199 212 215 223 228 224 218 218 218 219 221 221 222 224 225 223 221 214 204 198 198 201 206 206 208 217 204 184 175 164 167 186 211 231 237 242 245 246 246 239 232 235 242 250 255 254 245 250 261 265 268 271 272 272 271 271 272 273 274 273 271 267 266
204 203 208 213 212 211 214 216 214 213 214 213 210 204 202 228 235 230 227 228 224 219 217 221 228 226 221 220 223 224 222 218 215 216 219 220 223 226 225 222 220 213 203 200 206 207 208 211 208 201 197 194 190 157 152 192 219 242 239 242 245 247 247 245 241 241 245 250 255 257 256 258 261 260 261 265 268 268 268 270 272 275 275 273 270 268 268
203 204 202 206 210 209 210 211 208 208 212 213 211 208 202 211 230 229 224 223 219 212 209 216 231 225 224 224 222 221 220 219 217 215 218 220 222 224 224 221 220 215 209 205 205 209 218 220 213 196 198 200 193 147 178 204 220 238 238 242 246 248 249 250 249 248 249 250 250 251 255 257 256 253 256 263 268 268 268 271 275 277 275 273 270 269 270
205 205 202 205 207 206 209 213 210 212 217 218 220 222 218 214 221 218 203 206 207 205 203 202 140 193 215 238 232 215 207 206 207 209 215 219 218 216 218 219 218 215 210 207 205 209 213 213 212 214 207 196 182 149 211 216 225 236 240 243 249 253 256 257 257 256 256 252 246 238 243 254 259 260 261 264 268 269 269 272 274 273 270 268 267 268 270
207 204 203 206 206 205 209 214 214 217 218 219 226 232 231 231 238 242 211 198 197 197 202 199 153 143 208 269 322 214 196 191 197 202 207 217 214 208 207 210 208 205 205 207 208 208 200 200 208 218 201 180 177 191 225 222 229 236 241 246 251 257 261 262 260 258 258 255 249 244 247 256 261 263 263 265 267 269 271 271 270 268 267 267 268 270 270
207 207 206 205 205 207 209 211 214 218 218 220 227 233 236 238 241 247 238 214 203 198 201 192 169 149 187 203 318 208 186 181 192 195 192 205 211 205 195 188 194 200 203 202 200 198 198 197 199 200 178 168 184 210 226 228 231 235 240 245 250 255 257 256 255 256 257 255 252 252 254 256 256 257 261 264 265 268 270 269 268 268 267 269 271 272 271
203 205 205 204 205 208 209 212 217 219 220 223 227 232 239 241 238 242 244 229 221 223 204 164 166 180 187 212 247 186 175 176 186 187 183 185 198 197 189 179 191 201 192 185 183 202 203 196 186 172 169 176 201 225 231 234 237 235 235 241 247 250 251 251 253 256 258 256 255 256 256 254 253 255 259 263 265 266 267 265 265 265 265 268 271 272 271
197 198 198 201 205 206 210 216 219 220 225 230 230 230 231 227 224 230 229 221 227 233 225 197 209 203 191 205 173 160 165 170 167 169 173 167 169 186 185 177 187 191 178 177 210 203 192 189 189 197 201 208 229 237 237 238 242 240 236 241 247 249 252 254 255 258 259 258 258 257 254 251 251 252 254 259 263 263 262 263 264 264 265 269 272 272 271
192 195 197 199 199 197 206 220 222 221 226 228 224 219 211 199 194 206 207 204 218 225 216 212 225 204 188 178 166 165 166 166 158 158 168 167 166 177 173 175 194 186 164 215 210 189 176 175 190 213 222 223 235 243 244 243 245 244 243 247 251 252 254 256 255 252 249 248 251 252 247 242 245 249 252 257 262 265 265 267 268 267 267 269 269 268 267
194 195 195 198 201 201 205 217 221 220 218 213 206 196 184 179 175 180 193 196 208 207 198 207 220 202 185 161 164 174 171 157 146 167 184 175 178 185 170 182 191 176 176 247 193 175 178 220 201 212 229 226 235 243 245 244 245 246 247 250 253 255 256 256 254 250 245 245 252 257 255 251 253 257 259 262 265 268 269 268 267 266 265 264 263 261 260
193 190 190 194 202 207 207 205 204 202 198 193 187 175 166 181 182 164 165 179 202 198 190 202 216 208 202 205 204 187 183 179 174 173 181 188 191 183 162 185 179 163 195 237 177 166 184 226 175 204 231 228 233 241 244 242 243 246 249 251 254 256 257 257 256 255 253 253 258 261 261 260 261 262 264 265 266 267 267 266 264 264 262 260 259 256 255
189 188 190 192 194 196 195 189 186 185 180 172 167 162 164 181 184 167 150 162 196 223 197 186 185 200 204 203 199 193 198 199 192 177 171 192 189 165 151 236 207 160 199 219 170 150 154 176 180 213 231 232 238 243 243 241 242 246 250 252 254 255 257 257 258 258 257 256 257 259 259 259 259 259 260 261 262 262 262 260 259 258 256 256 255 253 252
196 195 194 190 185 185 188 190 188 180 163 142 154 186 184 153 156 165 187 193 201 208 196 190 183 186 196 198 198 198 201 200 191 176 169 196 187 170 161 268 202 182 209 189 136 101 88 208 221 232 237 241 245 246 244 243 244 246 250 252 253 254 256 257 257 257 257 256 257 258 257 257 257 256 257 256 255 255 255 255 254 253 251 250 250 250 250
201 195 190 184 180 181 186 192 193 181 144 135 168 173 162 160 154 148 217 227 212 183 179 181 178 175 186 192 195 196 196 195 192 184 173 179 171 160 139 202 198 190 156 116 113 127 197 214 226 237 241 246 250 250 250 251 251 249 250 252 253 255 256 256 256 256 256 256 256 255 253 253 252 252 251 251 250 251 252 251 249 248 247 246 247 248 250
186 178 174 173 173 174 174 173 173 170 172 194 182 170 179 195 183 168 194 202 191 186 186 180 170 163 175 181 179 179 186 190 191 189 183 164 154 145 170 213 203 146 90 105 161 206 221 226 237 243 246 251 255 256 255 255 254 251 251 252 254 255 256 255 254 253 253 253 252 250 247 246 245 245 246 246 247 248 248 247 245 245 245 245 247 248 249
172 159 154 154 168 174 168 148 148 163 189 208 192 178 190 196 188 190 200 188 169 167 183 181 174 167 167 170 172 176 175 173 179 184 170 135 159 180 193 202 175 119 139 191 195 212 244 244 240 240 244 249 254 257 257 257 256 253 251 252 253 253 253 252 251 249 248 247 246 243 241 240 240 241 242 243 242 241 241 240 240 241 241 242 244 245 247
174 159 152 156 202 179 166 146 151 180 212 212 190 183 192 197 191 192 196 190 179 177 183 181 177 172 163 157 166 181 170 159 167 179 149 137 182 200 163 120 96 143 186 203 206 218 231 234 234 238 243 247 252 257 259 258 256 254 252 252 252 251 248 247 246 244 242 240 239 236 235 235 236 237 238 238 235 233 231 230 230 231 233 235 237 239 242
180 166 161 170 207 171 168 188 189 184 193 205 198 198 201 201 191 184 189 196 200 197 187 180 177 179 178 170 172 193 182 165 170 175 150 145 185 180 109 102 180 196 194 210 221 226 231 234 238 244 247 251 256 260 259 257 254 251 249 250 250 247 243 241 240 237 235 233 231 229 229 229 229 230 231 228 224 223 221 220 221 224 226 230 235 239 244
173 165 167 172 172 180 190 180 157 148 144 142 158 179 188 186 176 170 183 197 201 194 181 171 166 175 188 171 163 187 217 177 180 184 154 132 123 123 122 185 231 214 198 214 221 225 234 240 244 250 255 257 259 259 256 253 250 247 245 245 244 241 237 235 232 229 228 226 223 223 224 223 222 222 219 214 213 212 209 208 214 218 221 231 241 250 259
179 168 160 151 128 201 183 164 155 163 176 161 148 151 163 170 164 156 161 176 187 184 176 162 142 138 166 133 111 125 264 197 175 161 112 125 176 186 165 182 208 222 223 221 222 233 256 259 257 260 261 254 249 248 246 244 243 241 239 239 237 234 231 228 224 221 220 218 216 216 215 213 211 209 205 202 202 201 200 204 211 217 225 240 252 264 274
189 175 137 147 171 101 94 130 161 198 212 192 176 174 178 183 181 169 165 171 174 172 166 145 112 121 131 73 88 159 229 219 175 150 152 188 200 186 155 187 212 220 224 227 242 279 303 302 280 257 247 240 235 235 237 238 236 233 230 229 227 224 221 218 215 213 210 207 206 205 202 199 197 196 194 194 194 195 197 205 213 225 245 260 271 280 285
176 186 192 197 198 186 154 153 182 208 212 209 209 208 208 212 215 214 209 196 176 162 155 140 112 110 97 115 169 186 193 91 113 151 215 214 168 150 180 221 223 218 226 252 265 264 264 262 250 240 237 235 232 232 233 232 229 225 222 219 215 211 206 203 201 201 199 195 191 190 188 187 186 187 189 190 190 192 202 218 235 253 271 281 286 290 293
131 152 162 211 206 196 187 187 204 219 216 213 214 215 215 218 222 220 207 191 178 167 156 145 135 122 130 184 187 147 68 85 150 191 216 220 180 178 204 223 218 207 226 254 256 244 242 244 243 241 240 240 240 239 233 224 217 210 205 200 197 195 192 190 188 188 188 184 180 178 179 180 179 180 182 182 184 195 220 246 263 277 287 290 291 293 295